Location: Coupvray
(48.8929°N, 2.7967°E)
Time: 21:36:16
(UTC+00:00)

Cosmos 724 - Pass Details

Date: 28 October 2020
Orbit: 851 x 943 km, 65.6° (Epoch: 01 December)

Event Time Altitude Azimuth Distance (km) Brightness Sun altitude
Exits shadow 05:05:03 - 325° (NW) 3,051 6.7 -14.5°
Reaches altitude 10° 05:06:33 10° 333° (NNW) 2,613 6.5 -14.2°
Maximum altitude 05:11:21 23° 25° (NNE) 1,850 6.2 -13.4°
Drops below altitude 10° 05:16:12 10° 77° (ENE) 2,648 8.0 -12.6°
Sets 05:19:19 0° 91° (E) 3,599 9.6 -12.1°
